TimeCDT,TemperatureF,Dew PointF,Humidity,Sea Level PressureIn,VisibilityMPH,Wind Direction,Wind SpeedMPH,Gust SpeedMPH,PrecipitationIn,Events,Conditions,WindDirDegrees,DateUTC
12:54 AM,79.0,66.9,66,29.90,10.0,SSE,15.0,-,N/A,,Partly Cloudy,160,2013-07-13 05:54:00
1:54 AM,79.0,66.9,66,29.92,10.0,SSE,8.1,-,N/A,,Clear,160,2013-07-13 06:54:00
2:54 AM,79.0,66.9,66,29.91,10.0,SSE,11.5,-,N/A,,Clear,150,2013-07-13 07:54:00
3:54 AM,78.1,66.9,68,29.91,10.0,SSE,12.7,-,N/A,,Clear,160,2013-07-13 08:54:00
4:54 AM,77.0,66.9,71,29.91,10.0,SSE,12.7,-,N/A,,Mostly Cloudy,160,2013-07-13 09:54:00
5:54 AM,77.0,66.0,69,29.92,10.0,SSE,11.5,-,0.00,,Scattered Clouds,150,2013-07-13 10:54:00
6:54 AM,77.0,66.0,69,29.93,9.0,SE,11.5,-,N/A,,Mostly Cloudy,140,2013-07-13 11:54:00
7:54 AM,78.1,66.0,66,29.93,9.0,SSE,12.7,-,N/A,,Mostly Cloudy,150,2013-07-13 12:54:00
8:54 AM,78.1,66.0,66,29.92,9.0,SSE,13.8,-,N/A,,Partly Cloudy,150,2013-07-13 13:54:00
9:54 AM,79.0,66.0,64,29.94,10.0,South,15.0,-,N/A,,Scattered Clouds,170,2013-07-13 14:54:00
10:54 AM,80.1,66.9,64,29.93,9.0,South,12.7,-,N/A,,Mostly Cloudy,170,2013-07-13 15:54:00
11:54 AM,86.0,70.0,59,29.92,10.0,South,9.2,-,N/A,,Scattered Clouds,190,2013-07-13 16:54:00
12:54 PM,90.0,68.0,48,29.90,10.0,South,20.7,-,N/A,,Clear,170,2013-07-13 17:54:00
1:54 PM,93.9,68.0,43,29.89,10.0,South,15.0,24.2,N/A,,Clear,170,2013-07-13 18:54:00
2:54 PM,95.0,66.9,40,29.88,10.0,South,21.9,28.8,N/A,,Clear,170,2013-07-13 19:54:00
3:54 PM,91.0,70.0,50,29.88,10.0,SE,19.6,23.0,N/A,,Clear,140,2013-07-13 20:54:00
4:54 PM,91.9,69.1,47,29.89,10.0,SSE,15.0,25.3,N/A,,Clear,150,2013-07-13 21:54:00
5:54 PM,91.0,69.1,48,29.87,10.0,SSE,19.6,-,N/A,,Clear,150,2013-07-13 22:54:00
6:54 PM,87.1,70.0,57,29.87,9.0,SE,13.8,-,N/A,,Clear,140,2013-07-13 23:54:00
7:54 PM,84.9,70.0,61,29.88,9.0,SE,15.0,-,N/A,,Clear,130,2013-07-14 00:54:00
8:54 PM,82.9,71.1,67,29.89,8.0,SE,16.1,21.9,N/A,,Clear,130,2013-07-14 01:54:00
9:54 PM,82.0,71.1,69,29.91,9.0,SE,15.0,20.7,N/A,,Clear,130,2013-07-14 02:54:00
10:54 PM,80.1,68.0,67,29.92,10.0,SE,17.3,25.3,N/A,,Clear,140,2013-07-14 03:54:00
11:54 PM,79.0,66.9,66,29.93,10.0,SE,17.3,28.8,N/A,,Clear,140,2013-07-14 04:54:00